Location: ČR
(50.0000°N, 15.0000°E)
Time: 14:12:19
(UTC+00:00)

Explorer 7 - Pass Details

Date: 22 October 2021
Orbit: 483 x 675 km, 50.3° (Epoch: 27 November)

Event Time Altitude Azimuth Distance (km) Brightness Sun altitude
Rises 01:39:50 0° 284° (WNW) 2,853 - -37.0°
Reaches altitude 10° 01:42:05 10° 281° (WNW) 1,979 - -36.7°
Maximum altitude 01:46:35 61° 202° (SSW) 727 - -36.1°
Drops below altitude 10° 01:51:18 10° 123° (ESE) 2,071 - -35.4°
Exits shadow 01:51:47 - 122° (ESE) 2,252 10.2 -35.4°
Sets 01:53:43 0° 119° (ESE) 2,998 11.0 -35.1°
